User: anonymous   Login
Location: NJAA Observatory
(40.6819°N, 74.8979°W)
Time: 02:19:12
(UTC-05:00)
Language:

Cosmos 1939 Rocket - Orbit

View from above orbital plane
View from above orbital plane
View from above satellite
View from above satellite

Ground track
Ground track

The orbit data is extracted from the following two-line orbital elements,

1 19046U 88032B   17349.90156658 -.00000380 +00000-0 -23748-4 0  9996
2 19046 097.5071 031.3400 0040804 075.2943 285.2799 15.02356306599633
Epoch (UTC): 15 December 2017 21:38:15
Eccentricity: 0.0040804
inclination: 97.5071°
perigee height: 531 km
apogee height: 588 km
right ascension of ascending node: 31.3400°
argument of perigee: 75.2943°
revolutions per day: 15.02356306
mean anomaly at epoch: 285.2799°
orbit number at epoch: 59963

The dashed part of the orbit path shows where the satellite is in the earth's shadow,  

DLR